Location: ?????? ????
(48.3288°N, 37.5756°E)
Time: 04:57:48
(UTC+00:00)

Daily predictions for brighter satellites

Satellite Brightness Start Highest point End
(mag) Time Altitude Azimuth Time Altitude Azimuth Time Altitude Azimuth
USA 215 4.3 00:49:29 10° E 00:53:51 38° NE 00:53:51 38° NE
Cosmos 2369 Rocket 3.9 01:36:27 10° SSE 01:41:14 30° ESE 01:46:02 10° NE
CENTAUR R/B 2.6 01:42:43 72° ESE 01:42:43 72° ESE 01:49:30 10° NE
NOSS 3-2 (A) 3.5 01:56:50 67° NNE 01:56:50 67° NNE 02:02:37 10° NE
MOS 1-B Rocket 4.3 01:51:15 10° SSE 01:57:22 62° ENE 02:00:06 31° N
Cosmos 1151 Rocket 4.5 02:01:19 32° NE 02:02:18 36° ENE 02:06:22 10° SE
NOSS 3-2 (C) 3.4 02:03:30 65° S 02:04:12 74° SE 02:10:41 10° NE
Cosmos 1816 Rocket 4.3 02:06:00 80° W 02:06:02 80° W 02:12:23 10° N
Cosmos 1943 Rocket 2.2 02:07:22 72° NNE 02:07:22 72° NNE 02:12:27 10° NNE
CZ-2C R/B 3.3 02:03:36 10° SE 02:08:54 53° ENE 02:12:49 18° N
Envisat 3.8 02:12:58 10° NNE 02:17:56 50° E 02:22:51 10° S
Cosmos 1634 Rocket 3.9 02:18:58 10° N 02:25:18 89° WSW 02:31:33 10° S
Cosmos 2098 Rocket 3.8 02:21:50 10° SSE 02:25:41 53° E 02:30:35 10° NNE
Cosmos 968 Rocket 3.3 02:24:45 61° SSW 02:25:42 89° WNW 02:30:52 10° NNE
Cosmos 2297 3.6 02:27:09 63° WNW 02:27:09 63° WNW 02:32:51 10° NNE
COSMO-SKYMED 1 2.7 02:24:12 10° SSE 02:28:30 70° ENE 02:29:28 51° N
USA 238 DEB 3.5 02:30:09 46° WSW 02:32:16 74° NW 02:39:12 10° NE
USA 238 3.5 02:30:13 45° WSW 02:32:22 74° NW 02:39:19 10° NE
Iridium 2 3.9 02:30:26 10° S 02:34:11 66° E 02:37:57 10° N
Cosmos 2278 Rocket 4.0 02:38:01 16° NNW 02:38:01 16° NNW 02:40:00 10° N
Tsikada Rocket 3.9 02:29:49 10° SSW 02:35:56 63° WNW 02:42:13 10° N
Helios 1B 4.4 02:32:49 10° SSE 02:37:09 90° E 02:37:50 63° NNW
USA 215 3.2 02:31:52 10° ESE 02:38:26 90° WSW 02:41:12 38° NW
Meteor 2-6 Rocket 4.1 02:39:19 11° N 02:44:37 80° ENE 02:50:00 10° SSE
Cosmos 2344 3.7 02:43:59 38° W 02:46:31 51° NW 02:54:28 10° NE
Meteor 2-3 Rocket 3.9 02:50:21 31° SW 02:52:36 46° WNW 02:58:09 10° N
SKYMED 3 4.4 02:48:18 10° S 02:52:37 68° WSW 02:53:51 44° NW
ATLAS 5 CENTAUR R/B 4.4 02:52:28 10° SSE 02:54:53 16° ESE 02:57:27 10° ENE
Cosmos 1515 Rocket 4.3 02:54:56 10° N 02:59:14 54° ENE 03:03:29 10° SSE
CZ-2C R/B 4.2 02:55:54 10° NNE 03:00:31 42° E 03:05:18 10° S
Cosmos 1833 4.1 02:57:20 24° NNW 03:00:56 84° WSW 03:06:40 10° SSE
FALCON 9 DEB 3.3 03:03:39 54° NNW 03:03:39 54° NNW 03:06:56 10° ENE
Meteor 1-10 Rocket 4.2 02:58:34 10° N 03:04:10 85° E 03:09:42 10° SSE
Meteor 2-8 Rocket 4.4 02:59:51 10° N 03:06:02 87° W 03:12:10 10° S
SJ 16-02 3.5 03:03:02 10° SSE 03:06:49 29° E 03:10:35 10° NE
Cosmos 1812 3.4 03:08:20 35° WSW 03:08:20 35° WSW 03:11:09 10° SSW
SL-8 R/B 3.9 03:07:56 36° W 03:09:42 60° SSW 03:14:25 10° ESE
Cosmos 2263 4.1 03:07:32 10° SSW 03:13:14 79° WNW 03:19:02 10° NNE
CZ-4B R/B 4.0 03:08:52 10° N 03:13:16 63° WNW 03:17:41 10° SSW
SKYMED 2 4.0 03:12:36 10° SSW 03:16:40 39° W 03:18:05 30° NW
Meteor PRIRODA 4.4 03:13:18 10° NNE 03:16:52 53° E 03:20:24 10° S
Landsat 5 3.8 03:12:35 10° S 03:16:58 50° W 03:19:56 19° NNW
FALCON 9 DEB 3.6 03:18:01 33° N 03:18:01 33° N 03:20:40 10° ENE
Cosmos 2297 Rocket 4.0 03:14:20 10° N 03:18:57 25° NE 03:23:34 10° E
CZ-4B R/B 3.5 03:17:57 10° SE 03:20:45 25° ENE 03:23:31 10° N
FALCON 9 DEB 3.7 03:23:16 30° NNW 03:23:26 30° N 03:26:02 10° ENE
FALCON 9 DEB 3.7 03:24:42 29° NNW 03:24:58 30° N 03:27:33 10° ENE
Cosmos 2369 Rocket 2.3 03:19:35 10° SW 03:25:00 50° NW 03:30:29 10° NNE
Cosmos 921 Rocket 4.4 03:26:25 21° WSW 03:26:25 21° WSW 03:29:19 10° SSW
Cosmos 783 Rocket 4.4 03:21:36 13° NNW 03:26:15 77° WSW 03:31:26 10° SSE
IRAS Rocket 4.1 03:21:25 10° SSE 03:26:55 78° WSW 03:32:27 10° NNW
SJ-7 4.4 03:23:34 10° NNE 03:27:49 90° ESE 03:31:58 10° SSW
Meteor 1-31 Rocket 3.1 03:24:36 10° N 03:28:17 41° WNW 03:31:58 10° SW
Cosmos 1503 Rocket 3.9 03:24:29 10° SSW 03:29:46 73° WNW 03:35:07 10° NNE
Geosat FO 4.4 03:28:01 10° SE 03:31:20 79° ENE 03:33:46 17° NNW
CENTAUR R/B 3.3 03:29:56 20° W 03:33:45 37° NNW 03:40:43 10° NE
CZ-4C R/B 3.4 03:31:17 10° SSW 03:34:09 33° W 03:34:50 29° WNW
H-2A R/B 2.1 03:30:32 10° SSE 03:34:47 82° ENE 03:39:11 10° NNW
DMSP B5D2-2 4.0 03:31:56 10° S 03:37:08 69° WSW 03:42:21 10° NNW
H-2A R/B 3.7 03:34:13 10° NNW 03:37:15 24° WNW 03:40:18 10° WSW
Okean 3 Rocket 4.0 03:33:02 10° SW 03:37:19 41° WNW 03:41:40 10° N
Cosmos 1486 Rocket 4.4 03:32:23 10° SW 03:37:22 40° WNW 03:42:22 10° N
Cosmos 1151 Rocket 4.1 03:38:14 21° WNW 03:39:40 24° W 03:43:12 10° SW
Cosmos 1777 Rocket 4.4 03:35:01 10° S 03:40:10 69° ESE 03:45:24 10° NNE
Cosmos 1862 4.0 03:38:44 10° SW 03:42:14 30° WNW 03:45:46 10° N
Cosmos 1656 Rocket 3.8 03:37:54 10° SW 03:43:08 48° NW 03:48:26 10° NNE
FALCON 9 DEB 3.8 03:42:59 23° NW 03:44:02 30° N 03:46:40 10° ENE
Alouette 2 Rocket 3.3 03:41:03 10° NNW 03:45:01 77° ENE 03:48:33 10° SSE
Cosmos 773 Rocket 4.0 03:40:34 10° NNW 03:45:44 59° WSW 03:50:48 10° S
COSMOS 2487 3.0 03:44:02 10° NNW 03:47:21 54° ENE 03:50:39 10° SE
Cosmos 1766 Rocket 4.3 03:43:37 10° SW 03:47:24 29° WNW 03:51:12 10° N
CZ-2C R/B 3.6 03:44:57 10° SSW 03:49:27 26° W 03:53:55 10° NW
Cosmos 1943 Rocket 3.5 03:48:57 16° WNW 03:51:22 20° NW 03:55:31 10° N
NOSS 2 (A) 4.1 03:51:35 17° NW 03:53:34 85° NE 03:56:03 10° SE
Cosmos 2227 Rocket 3.7 03:49:37 10° NNW 03:54:36 31° NE 03:59:33 10° ESE
NOSS 3-2 (C) 4.2 03:50:59 13° W 03:55:44 35° NNW 04:01:57 10° NE
Envisat 3.9 03:52:31 10° N 03:56:41 26° WNW 04:00:49 10° WSW
CZ-4B R/B 2.7 03:57:47 10° N 04:01:16 50° WNW 04:04:44 10° SSW
ATLAS 3B R/B 3.2 03:54:58 10° SSW 04:01:23 63° ESE 04:08:09 10° NE
Cosmos 1607 4.2 03:57:44 10° NW 04:04:02 71° NE 04:10:11 10° SE
COSMO-SKYMED 1 4.3 04:02:55 10° WSW 04:05:10 14° W 04:06:40 12° WNW
Nadezhda 4 Rocket 4.0 03:59:53 10° SSW 04:05:56 59° WNW 04:12:07 10° N
SL-27 R/B 3.3 04:02:57 11° NW 04:06:00 32° WSW 04:09:11 10° SSW
Lacrosse 4 Rocket 3.7 04:03:28 10° N 04:06:38 19° NE 04:09:50 10° E
NOAA 12 4.1 04:01:33 10° N 04:06:48 66° WNW 04:11:59 10° SSW
Meteor 1-27 Rocket 4.1 04:06:04 10° NNW 04:11:25 46° W 04:16:51 10° SSW
PSLV R/B 4.2 04:08:22 10° NNE 04:12:18 72° ESE 04:16:18 10° S
Cosmos 1602 3.6 04:10:10 10° S 04:13:59 84° W 04:17:49 10° N
Cosmos 158 Rocket 4.0 04:11:47 10° NNW 04:16:54 70° WSW 04:22:05 10° SSE
Cosmos 1174 3.0 04:15:04 10° SW 04:18:02 81° NW 04:21:12 10° NE
Cosmos 2228 Rocket 3.2 04:15:25 10° NNW 04:19:51 62° W 04:24:19 10° S
SMAP 3.0 04:15:44 10° N 04:20:22 66° WNW 04:24:59 10° SSW
Cosmos 1092 Rocket 4.0 04:14:56 10° SSW 04:21:12 75° W 04:27:33 10° N
Cosmos 1408 Rocket 4.4 04:18:14 10° SW 04:21:53 27° WNW 04:25:34 10° NNW
USA 215 4.2 04:16:18 10° S 04:21:57 31° SW 04:27:39 10° WNW
Cosmos 1428 Rocket 4.5 04:19:03 10° SSW 04:25:11 79° W 04:31:21 10° N
PSLV R/B 4.0 04:22:22 10° S 04:26:23 64° WSW 04:30:28 10° NNW
Cosmos 2219 4.1 04:21:16 10° NNW 04:26:44 47° NE 04:32:12 10° SE
ADEOS 4.4 04:24:04 10° N 04:28:27 28° WNW 04:32:49 10° WSW
Cosmos 1743 Rocket 4.0 04:25:45 10° SW 04:29:53 39° WNW 04:34:00 10° N
